Wind_Speed
6 6 8 9 10 11 13 14 15 15 16 16 18 19 19 18 16 16 16 17 18 19 17 16 15 14 14 13 11 10 11 11 11 11 11 11 10 9 8 8 7 6 8
3 4 5 7 9 10 12 12 12 12 13 14 16 18 19 18 16 15 15 18 19 18 18 16 14 13 13 13 12 9 8 9 9 10 10 10 11 10 9 7 5 4 4
3 4 6 7 8 9 11 12 10 9 11 13 15 17 18 17 16 14 14 17 19 19 18 17 14 13 13 13 13 12 9 7 8 8 9 9 9 9 9 8 6 3 2
6 6 7 8 8 8 9 10 8 7 8 10 13 15 16 16 14 14 15 17 18 18 18 19 16 14 13 13 14 14 11 8 7 7 7 7 7 6 7 7 7 6 4
8 8 9 9 10 9 8 9 8 7 6 8 9 11 13 14 14 14 15 17 18 18 19 19 19 17 15 14 14 14 14 12 9 7 6 6 6 5 5 5 6 6 6
7 8 9 10 11 10 9 9 11 11 10 10 11 10 11 13 14 15 15 16 17 17 17 19 19 19 17 15 15 14 14 14 11 8 7 7 7 5 5 4 4 3 4
8 8 9 10 11 12 12 12 13 15 15 15 14 12 12 12 13 14 16 16 16 16 16 17 18 18 18 16 16 16 15 15 14 11 9 9 9 9 8 7 5 3 2
8 9 10 11 11 12 12 13 13 14 15 15 14 14 14 13 12 12 14 15 16 16 16 17 18 17 16 15 15 15 15 15 16 15 12 10 10 10 9 9 8 7 5
9 10 11 12 12 11 11 10 10 11 11 12 12 12 11 11 10 10 12 13 14 14 15 16 16 17 16 16 15 14 14 14 15 16 16 15 13 11 11 11 10 9 9
11 12 12 12 11 10 10 9 8 8 9 9 9 9 10 11 11 12 13 14 13 13 13 14 14 14 16 17 17 16 15 16 16 16 17 17 16 12 11 12 12 12 11
11 11 12 12 12 11 12 12 13 13 14 14 14 15 15 14 14 13 14 14 14 14 15 14 13 13 14 16 17 18 18 17 17 17 18 19 18 16 12 13 15 15 15
13 13 13 14 15 16 17 19 20 21 21 21 21 21 21 19 18 18 17 18 17 17 16 17 16 15 16 17 17 18 18 18 18 19 19 19 19 18 15 14 14 16 17
18 20 21 21 21 22 22 24 25 25 25 25 26 26 26 25 25 25 24 23 22 21 20 19 18 18 18 19 19 20 20 20 20 22 22 22 21 21 20 18 16 17 17
23 23 25 27 27 28 27 28 28 29 30 30 30 30 30 30 29 29 29 29 29 28 27 25 23 22 22 23 22 21 22 22 21 23 24 23 23 23 22 22 21 20 19
29 28 28 30 32 33 34 33 33 33 35 36 35 35 35 34 33 33 32 32 32 33 32 31 29 27 27 27 28 27 25 23 22 22 23 24 25 26 26 25 25 23 22
32 33 33 34 35 37 38 39 39 39 40 40 41 41 41 38 36 36 36 35 35 35 35 34 33 32 32 31 32 33 32 29 28 26 25 26 27 29 30 29 28 26 25
33 35 38 39 39 40 40 41 42 43 43 42 42 40 38 35 33 34 35 35 36 36 36 35 33 34 36 36 36 37 37 36 36 34 30 28 28 31 33 33 32 30 27
34 34 37 39 40 41 41 41 41 41 40 40 38 37 36 36 35 35 36 35 36 38 38 37 36 36 38 39 40 41 42 42 41 38 34 32 31 32 35 37 37 35 31
34 34 36 37 37 38 37 37 37 38 39 39 38 38 39 39 38 38 39 39 40 41 41 40 39 38 39 42 43 42 43 44 44 42 38 35 33 34 37 39 40 38 36
39 36 35 35 35 36 36 36 37 38 39 38 38 39 40 41 41 42 42 43 43 44 43 42 41 41 42 43 45 44 43 43 43 41 37 33 33 35 37 39 40 40 38
39 40 39 37 35 36 36 37 38 40 41 41 41 41 42 42 42 42 42 42 42 43 43 43 43 43 44 45 46 45 43 40 39 39 38 36 36 38 37 37 38 39 38
33 36 39 38 37 36 36 36 36 37 39 40 40 40 40 40 39 40 40 40 40 40 41 42 42 42 42 43 44 43 41 40 39 41 42 41 39 38 37 36 38 38 36
33 34 35 36 37 37 38 36 35 34 34 34 35 36 36 35 35 36 37 38 39 40 41 42 43 43 42 43 43 43 42 41 39 38 39 39 37 34 33 34 36 36 34
34 35 34 34 35 36 37 38 39 38 36 35 35 35 36 37 36 36 37 39 41 42 43 43 43 44 45 45 46 45 44 42 40 36 35 35 33 30 31 33 34 34 32
34 35 37 39 39 39 40 41 42 43 42 40 39 39 39 39 40 40 41 42 43 43 43 42 43 44 45 46 47 47 46 42 39 37 35 33 30 29 30 33 34 32 32
31 33 35 37 40 41 43 43 44 44 44 43 43 42 41 41 41 41 42 42 43 43 43 43 44 45 46 47 48 48 45 42 39 36 33 30 28 29 30 32 33 33 33
Wind_Direction
86 74 59 49 44 38 33 30 31 33 34 32 28 23 20 20 21 21 21 20 13 10 10 13 13 15 14 12 15 26 35 41 38 36 38 43 46 50 61 75 87 95 90
69 47 40 35 34 28 23 23 29 36 34 31 27 22 19 18 20 22 21 13 11 10 9 10 11 14 15 12 7 7 20 31 35 33 30 31 37 38 43 59 79 93 92
13 5 8 10 16 20 22 25 33 37 31 28 25 21 19 17 17 20 17 12 9 9 9 8 8 10 13 13 11 6 3 11 20 27 25 18 24 29 30 35 43 47 36
359 347 349 350 353 4 14 21 26 24 20 19 19 18 15 12 9 7 4 4 3 4 7 7 4 4 8 8 9 11 7 2 5 9 9 1 6 14 17 19 19 18 8
7 356 351 346 343 347 357 1 359 349 342 354 3 5 4 2 359 354 351 352 355 356 357 2 2 359 -0 1 4 10 12 9 6 354 339 330 336 349 352 358 4 10 13
359 358 354 349 344 339 337 337 337 337 331 331 338 343 349 350 349 348 347 346 347 346 347 349 356 357 353 353 354 1 7 10 8 353 328 309 300 302 309 319 332 348 1
329 333 334 332 331 330 329 328 329 332 331 331 332 333 336 340 341 344 346 345 341 336 334 335 341 347 350 349 345 348 355 360 4 355 331 310 296 290 279 277 288 290 312
320 317 317 315 317 326 333 335 335 336 336 334 334 334 337 342 346 347 347 345 342 335 328 323 324 328 333 336 336 338 344 347 349 353 346 319 298 287 273 263 265 269 272
309 308 308 307 312 321 328 332 335 339 341 342 343 342 343 347 346 342 337 335 336 335 331 325 318 315 317 320 322 325 329 333 335 340 342 338 324 302 279 268 267 269 271
304 304 306 303 302 303 305 307 311 315 319 321 320 319 320 321 321 320 320 317 315 320 325 327 324 320 317 315 314 313 315 320 323 329 331 334 335 323 295 276 269 267 268
309 305 305 300 296 292 291 294 296 297 300 301 298 298 302 302 303 304 306 307 306 307 311 314 315 314 315 315 311 307 307 308 311 314 318 324 326 324 318 297 280 269 263
306 301 298 295 292 292 293 295 297 298 298 297 295 294 295 295 295 294 292 293 295 298 301 304 306 304 304 304 303 303 304 299 296 297 301 305 309 314 312 306 295 281 270
293 291 290 288 288 290 292 294 296 298 299 297 294 293 293 295 294 293 291 288 287 288 290 290 293 294 295 296 294 295 297 295 293 292 291 292 295 301 303 302 298 291 282
285 284 287 288 287 287 287 287 288 290 292 293 292 290 290 291 291 290 290 289 289 289 288 287 285 284 284 286 289 291 295 297 296 292 290 286 282 282 287 291 293 291 288
286 284 284 284 284 284 284 283 283 284 286 288 288 287 287 289 289 289 286 286 285 285 285 285 284 280 281 284 286 286 288 294 298 291 286 283 277 273 272 275 279 285 288
282 283 283 281 279 279 281 283 283 283 283 284 286 287 288 289 288 287 285 283 281 280 281 282 283 281 279 281 284 285 284 284 286 286 279 275 274 271 266 264 267 275 283
279 280 281 282 281 280 280 281 281 281 281 281 283 283 283 281 278 277 278 280 279 279 279 280 279 278 279 281 284 285 285 284 286 285 278 272 271 271 269 263 260 264 271
283 280 280 280 281 282 282 283 282 281 281 281 281 278 277 277 275 274 276 277 278 279 279 279 277 274 276 279 283 284 284 285 286 285 282 280 276 271 267 263 258 258 263
287 282 279 279 280 281 281 281 281 282 282 282 283 281 279 277 275 274 274 275 275 277 278 278 278 276 276 279 282 284 285 286 286 284 281 280 278 272 264 257 254 254 257
296 289 282 280 279 280 280 280 281 281 281 281 281 280 280 279 277 274 273 272 273 274 277 277 278 277 276 277 279 282 284 287 289 284 277 276 276 276 268 256 252 251 253
299 296 292 288 286 284 283 281 281 280 280 280 279 278 277 277 276 275 274 273 273 274 275 277 278 278 278 279 280 282 284 289 290 283 278 279 281 280 273 259 252 250 251
301 298 295 294 293 291 289 286 283 280 279 278 277 277 277 278 277 276 275 275 275 276 277 278 278 278 279 280 281 282 285 288 289 286 283 282 280 277 272 260 250 249 251
301 298 293 293 295 296 295 292 288 285 282 280 280 281 282 281 280 278 277 279 280 281 280 279 279 279 279 279 281 282 283 284 286 284 282 280 277 272 266 257 250 247 249
297 297 295 292 293 295 295 293 291 288 285 283 282 283 284 285 284 282 281 282 284 285 284 282 280 279 279 278 279 281 283 284 282 280 279 277 270 262 256 252 248 245 246
293 294 296 298 298 297 295 293 291 289 287 286 285 284 285 285 284 282 282 283 285 285 285 283 282 281 280 279 278 279 280 280 279 279 277 273 264 253 247 245 244 242 242
299 297 296 296 296 295 293 290 288 287 286 285 284 284 283 282 282 283 283 284 284 284 285 285 284 282 280 277 277 277 276 276 275 273 271 269 261 251 243 240 237 239 243
Height
5929 5929 5929 5928 5929 5929 5929 5929 5929 5929 5928 5928 5927 5925 5924 5923 5921 5920 5919 5917 5916 5914 5912 5910 5908 5906 5905 5903 5902 5901 5900 5899 5898 5898 5897 5895 5894 5894 5893 5893 5893 5893 5892
5931 5931 5931 5931 5931 5931 5931 5932 5931 5930 5930 5929 5928 5926 5925 5924 5922 5921 5920 5918 5916 5914 5913 5911 5909 5907 5906 5904 5903 5902 5901 5900 5899 5898 5897 5896 5894 5893 5893 5893 5893 5893 5893
5932 5932 5933 5933 5933 5933 5933 5933 5932 5932 5931 5930 5928 5927 5926 5925 5923 5922 5921 5919 5917 5915 5913 5911 5910 5908 5907 5905 5904 5903 5902 5901 5900 5898 5897 5896 5895 5894 5893 5893 5892 5893 5893
5933 5933 5934 5934 5934 5934 5933 5933 5933 5932 5931 5930 5929 5928 5926 5925 5924 5923 5921 5920 5918 5916 5914 5912 5910 5908 5907 5906 5904 5903 5902 5901 5900 5899 5897 5896 5896 5895 5894 5893 5893 5892 5892
5934 5934 5934 5934 5934 5934 5934 5933 5932 5932 5931 5930 5929 5927 5926 5925 5925 5923 5922 5920 5919 5917 5915 5912 5910 5909 5907 5906 5904 5903 5902 5901 5900 5899 5897 5896 5896 5896 5895 5894 5894 5893 5892
5933 5933 5933 5933 5933 5933 5933 5932 5932 5931 5931 5930 5929 5927 5926 5925 5925 5923 5922 5920 5919 5917 5915 5913 5911 5909 5907 5906 5905 5903 5902 5901 5900 5899 5897 5896 5895 5895 5895 5894 5894 5894 5893
5933 5933 5933 5933 5933 5932 5931 5931 5931 5930 5930 5929 5928 5927 5925 5925 5924 5923 5921 5919 5918 5916 5915 5913 5911 5909 5907 5906 5905 5904 5902 5902 5901 5899 5898 5896 5895 5894 5894 5894 5893 5892 5892
5932 5931 5931 5931 5931 5931 5930 5930 5929 5928 5928 5927 5926 5925 5924 5923 5922 5921 5919 5917 5916 5914 5913 5911 5910 5908 5906 5905 5904 5903 5902 5901 5901 5899 5898 5896 5894 5893 5893 5892 5892 5891 5890
5931 5930 5930 5929 5929 5929 5928 5928 5927 5926 5925 5924 5923 5922 5921 5921 5920 5919 5917 5915 5913 5911 5910 5909 5907 5906 5905 5903 5902 5901 5901 5900 5899 5898 5897 5895 5894 5892 5892 5891 5890 5889 5888
5930 5929 5929 5928 5927 5927 5926 5925 5924 5923 5922 5921 5920 5919 5918 5917 5917 5916 5914 5912 5910 5908 5907 5906 5904 5903 5902 5901 5900 5899 5899 5898 5897 5896 5896 5895 5893 5891 5890 5890 5889 5888 5887
5930 5929 5928 5927 5926 5925 5924 5923 5922 5921 5919 5918 5917 5916 5915 5914 5913 5911 5910 5909 5907 5905 5904 5902 5901 5900 5899 5898 5897 5896 5896 5895 5894 5893 5893 5893 5892 5890 5888 5888 5887 5886 5885
5928 5927 5926 5926 5925 5924 5922 5921 5920 5918 5917 5916 5914 5913 5912 5910 5909 5907 5906 5904 5903 5901 5900 5898 5897 5896 5895 5894 5893 5892 5891 5891 5890 5889 5888 5889 5889 5888 5887 5886 5885 5884 5883
5926 5924 5923 5922 5921 5920 5919 5917 5916 5914 5913 5912 5910 5909 5907 5906 5904 5902 5901 5899 5897 5896 5895 5894 5893 5892 5890 5889 5889 5888 5887 5886 5885 5884 5884 5883 5883 5883 5883 5883 5883 5882 5881
5923 5921 5919 5917 5916 5914 5913 5912 5911 5909 5907 5906 5905 5903 5901 5900 5899 5897 5895 5892 5891 5890 5889 5888 5887 5886 5885 5883 5882 5882 5882 5881 5880 5879 5879 5878 5879 5879 5879 5879 5880 5880 5879
5916 5916 5915 5913 5909 5907 5905 5905 5904 5903 5900 5898 5897 5896 5895 5893 5891 5890 5888 5886 5884 5883 5882 5881 5880 5879 5878 5876 5875 5875 5875 5876 5875 5874 5873 5872 5872 5872 5873 5874 5875 5876 5875
5908 5907 5906 5905 5903 5901 5899 5898 5896 5895 5893 5891 5889 5887 5885 5884 5882 5881 5879 5878 5877 5875 5874 5873 5871 5870 5869 5869 5868 5867 5867 5868 5869 5868 5867 5866 5865 5865 5866 5868 5869 5869 5869
5899 5897 5895 5895 5894 5892 5891 5890 5887 5885 5883 5881 5880 5877 5875 5873 5872 5871 5870 5869 5867 5866 5865 5864 5863 5862 5861 5860 5859 5859 5859 5859 5860 5859 5859 5858 5857 5856 5857 5860 5861 5862 5862
5890 5888 5885 5884 5883 5882 5880 5878 5876 5873 5871 5870 5869 5868 5866 5864 5862 5861 5860 5859 5857 5856 5855 5854 5854 5852 5851 5851 5850 5849 5849 5848 5849 5849 5849 5849 5848 5848 5848 5850 5852 5853 5855
5881 5879 5876 5874 5873 5871 5869 5867 5865 5862 5860 5859 5858 5857 5855 5854 5853 5853 5851 5849 5848 5846 5845 5844 5843 5842 5842 5841 5840 5840 5839 5837 5838 5839 5840 5839 5839 5838 5838 5840 5842 5844 5846
5870 5870 5868 5866 5864 5863 5860 5858 5856 5854 5852 5851 5849 5847 5845 5843 5842 5841 5840 5839 5838 5835 5834 5833 5832 5832 5831 5830 5829 5830 5830 5829 5828 5828 5829 5829 5829 5827 5827 5829 5832 5835 5838
5862 5859 5858 5857 5857 5855 5853 5850 5848 5845 5843 5841 5839 5837 5835 5833 5831 5829 5829 5829 5828 5826 5824 5823 5822 5821 5821 5820 5819 5819 5820 5819 5818 5818 5818 5818 5817 5816 5816 5818 5822 5825 5829
5857 5853 5850 5847 5845 5844 5842 5840 5838 5836 5833 5831 5828 5827 5825 5823 5821 5819 5818 5818 5817 5816 5815 5814 5812 5811 5810 5809 5808 5807 5808 5810 5810 5809 5808 5807 5806 5805 5805 5808 5811 5815 5818
5852 5849 5846 5842 5839 5836 5833 5831 5828 5826 5824 5822 5820 5818 5816 5814 5812 5811 5809 5808 5807 5806 5805 5804 5803 5801 5800 5799 5798 5798 5797 5798 5800 5800 5798 5797 5796 5795 5796 5797 5801 5805 5809
5847 5843 5840 5837 5834 5830 5826 5823 5820 5818 5816 5813 5811 5809 5807 5805 5803 5801 5800 5798 5797 5795 5793 5792 5791 5790 5790 5789 5788 5788 5788 5787 5788 5789 5790 5788 5787 5786 5787 5789 5792 5796 5801
5841 5837 5832 5828 5825 5822 5818 5815 5812 5808 5806 5804 5802 5800 5798 5796 5794 5792 5790 5789 5787 5785 5783 5781 5780 5778 5778 5777 5777 5777 5776 5777 5777 5778 5779 5779 5777 5778 5779 5780 5784 5789 5793
5832 5828 5824 5820 5816 5812 5808 5805 5802 5799 5796 5794 5792 5790 5789 5787 5784 5782 5780 5778 5776 5774 5772 5771 5769 5767 5766 5765 5765 5765 5765 5766 5767 5768 5769 5769 5769 5770 5771 5773 5776 5780 5784